| time (UTC) | temp F | wind direction | speed knots | gust knots | rain 1hr in | rain 24hr in | rain mn in | humidity % | barometer mb |
| 20260906080039 | 85 | 148 | 1.7 | 5.2 | 0.00 | 0.00 | 0.00 | 66 | 1016.7 |
| 20260906074540 | 84 | 77 | 0.0 | 7.0 | 0.00 | 0.00 | 0.00 | 68 | 1016.6 |
| 20260906073036 | 84 | 5 | 0.9 | 5.2 | 0.00 | 0.00 | 0.00 | 70 | 1016.5 |
| 20260906071532 | 83 | 316 | 0.9 | 3.5 | 0.00 | 0.00 | 0.00 | 72 | 1016.5 |
| 20260906070025 | 82 | 164 | 0.9 | 6.1 | 0.00 | 0.00 | 0.00 | 74 | 1016.4 |
| 20260906064526 | 81 | 117 | 0.9 | 3.5 | 0.00 | 0.00 | 0.00 | 78 | 1016.2 |
| 20260906063017 | 80 | 102 | 0.0 | 1.7 | 0.00 | 0.00 | 0.00 | 81 | 1016.1 |
| 20260906061512 | 78 | 123 | 0.0 | 1.7 | 0.00 | 0.00 | 0.00 | 83 | 1016.2 |
| 20260906060011 | 78 | 94 | 0.0 | 2.6 | 0.00 | 0.00 | 0.00 | 83 | 1016.2 |
| 20260906054506 | 77 | 119 | 0.0 | 4.3 | 0.00 | 0.00 | 0.00 | 83 | 1016.0 |
| 20260906053006 | 77 | 246 | 0.0 | 2.6 | 0.00 | 0.00 | 0.00 | 84 | 1016.0 |
| 20260906051505 | 77 | 229 | 0.0 | 2.6 | 0.00 | 0.00 | 0.00 | 84 | 1015.9 |
| 20260906050011 | 77 | 227 | 0.0 | 1.7 | 0.00 | 0.00 | 0.00 | 84 | 1016.0 |
| 20260906044501 | 77 | 342 | 0.0 | 3.5 | 0.00 | 0.00 | 0.00 | 83 | 1016.0 |
| 20260906043109 | 77 | 320 | 0.0 | 2.6 | 0.00 | 0.00 | 0.00 | 83 | 1015.8 |
| 20260906041600 | 77 | 28 | 0.0 | 0.0 | 0.00 | 0.00 | 0.00 | 83 | 1015.9 |
| 20260906040059 | 77 | 28 | 0.0 | 0.0 | 0.00 | 0.00 | 0.00 | 83 | 1015.8 |
| 20260906034601 | 77 | 28 | 0.0 | 1.7 | 0.00 | 0.00 | 0.00 | 83 | 1015.6 |
| 20260906033057 | 77 | 79 | 0.0 | 2.6 | 0.00 | 0.00 | 0.00 | 83 | 1015.6 |
| 20260906031622 | 77 | 228 | 0.0 | 2.6 | 0.00 | 0.00 | 0.00 | 83 | 1015.6 |
| 20260906030056 | 77 | 58 | 0.0 | 3.5 | 0.00 | 0.00 | 0.00 | 83 | 1015.6 |
| 20260906024556 | 77 | 21 | 0.0 | 5.2 | 0.00 | 0.00 | 0.00 | 83 | 1015.7 |
| 20260906023108 | 77 | 14 | 0.0 | 3.5 | 0.00 | 0.00 | 0.00 | 83 | 1015.8 |
| 20260906021554 | 77 | 101 | 0.0 | 1.7 | 0.00 | 0.00 | 0.00 | 83 | 1015.8 |
| 20260906020058 | 77 | 115 | 0.0 | 0.0 | 0.00 | 0.00 | 0.00 | 83 | 1015.8 |
| 20260906014552 | 77 | 283 | 0.0 | 1.7 | 0.00 | 0.00 | 0.00 | 83 | 1015.8 |
| 20260906013051 | 77 | 281 | 0.0 | 0.0 | 0.00 | 0.00 | 0.00 | 83 | 1015.8 |
| 20260906011556 | 78 | 282 | 0.0 | 1.7 | 0.00 | 0.00 | 0.00 | 83 | 1015.8 |
| 20260906010051 | 78 | 280 | 0.0 | 0.0 | 0.00 | 0.00 | 0.00 | 83 | 1015.7 |
| 20260906004556 | 78 | 275 | 0.0 | 1.7 | 0.00 | 0.00 | 0.00 | 83 | 1015.8 |
| 20260906003052 | 78 | 311 | 0.0 | 1.7 | 0.00 | 0.00 | 0.00 | 83 | 1015.7 |
| 20260906001548 | 78 | 283 | 0.0 | 4.3 | 0.00 | 0.00 | 0.00 | 83 | 1015.7 |
| 20260906000052 | 78 | 329 | 0.0 | 3.5 | 0.00 | 0.00 | 0.00 | 83 | 1015.8 |
| 20260905234545 | 78 | 44 | 0.0 | 2.6 | 0.00 | 0.00 | 0.00 | 83 | 1016.0 |
| 20260905233049 | 78 | 278 | 0.0 | 6.1 | 0.00 | 0.00 | 0.00 | 83 | 1016.1 |
| 20260905231547 | 78 | 257 | 0.0 | 6.1 | 0.00 | 0.00 | 0.00 | 83 | 1016.2 |
| 20260905230042 | 78 | 265 | 0.0 | 1.7 | 0.00 | 0.00 | 0.00 | 83 | 1016.2 |
| 20260905224541 | 78 | 240 | 0.0 | 2.6 | 0.00 | 0.00 | 0.00 | 83 | 1016.2 |
| 20260905223041 | 78 | 211 | 0.0 | 1.7 | 0.00 | 0.00 | 0.00 | 83 | 1016.2 |
| 20260905221553 | 79 | 316 | 0.0 | 0.9 | 0.00 | 0.00 | 0.00 | 82 | 1016.2 |
| 20260905220040 | 79 | 316 | 0.0 | 0.9 | 0.00 | 0.00 | 0.00 | 82 | 1016.2 |
| 20260905214537 | 79 | 310 | 0.0 | 2.6 | 0.00 | 0.00 | 0.00 | 82 | 1016.2 |
| 20260905213037 | 79 | 355 | 0.0 | 1.7 | 0.00 | 0.00 | 0.00 | 81 | 1016.3 |
| 20260905211536 | 79 | 355 | 0.0 | 2.6 | 0.00 | 0.00 | 0.00 | 81 | 1016.3 |
| 20260905210036 | 79 | 302 | 0.0 | 0.0 | 0.00 | 0.00 | 0.00 | 80 | 1016.2 |
| 20260905204538 | 79 | 302 | 0.0 | 2.6 | 0.00 | 0.00 | 0.00 | 80 | 1016.3 |
| 20260905203035 | 79 | 34 | 0.0 | 0.0 | 0.00 | 0.00 | 0.00 | 80 | 1016.3 |
| 20260905201536 | 79 | 35 | 0.0 | 0.0 | 0.00 | 0.00 | 0.00 | 80 | 1016.3 |
| 20260905200038 | 80 | 40 | 0.0 | 0.9 | 0.00 | 0.00 | 0.00 | 79 | 1016.3 |
| 20260905194533 | 80 | 64 | 0.0 | 0.9 | 0.00 | 0.00 | 0.00 | 79 | 1016.2 |
| 20260905193040 | 80 | 58 | 0.0 | 1.7 | 0.00 | 0.00 | 0.00 | 79 | 1016.3 |
| 20260905191532 | 80 | 338 | 0.0 | 0.9 | 0.00 | 0.00 | 0.00 | 79 | 1016.2 |
| 20260905190041 | 80 | 338 | 0.0 | 2.6 | 0.00 | 0.00 | 0.00 | 79 | 1016.1 |
| 20260905184534 | 80 | 70 | 0.0 | 0.0 | 0.00 | 0.00 | 0.00 | 78 | 1016.0 |
| 20260905183031 | 81 | 5 | 0.0 | 0.0 | 0.00 | 0.00 | 0.00 | 78 | 1015.9 |
| 20260905181533 | 81 | 115 | 0.0 | 2.6 | 0.00 | 0.00 | 0.00 | 77 | 1015.7 |
| 20260905180044 | 81 | 47 | 0.0 | 0.0 | 0.00 | 0.00 | 0.00 | 76 | 1015.6 |
| 20260905174529 | 82 | 79 | 0.0 | 0.0 | 0.00 | 0.00 | 0.00 | 74 | 1015.5 |
| 20260905173028 | 82 | 336 | 0.0 | 1.7 | 0.00 | 0.00 | 0.00 | 73 | 1015.6 |
| 20260905171545 | 82 | 349 | 0.0 | 2.6 | 0.00 | 0.00 | 0.00 | 72 | 1015.4 |
| 20260905170028 | 82 | 223 | 0.0 | 2.6 | 0.00 | 0.00 | 0.00 | 71 | 1015.4 |
| 20260905164527 | 83 | 78 | 0.0 | 3.5 | 0.00 | 0.00 | 0.00 | 70 | 1015.4 |
| 20260905163026 | 83 | 315 | 0.9 | 3.5 | 0.00 | 0.00 | 0.00 | 69 | 1015.4 |
| 20260905161527 | 84 | 76 | 0.9 | 3.5 | 0.00 | 0.00 | 0.00 | 68 | 1015.5 |
| 20260905160044 | 84 | 157 | 0.0 | 7.8 | 0.00 | 0.00 | 0.00 | 67 | 1015.5 |
| 20260905154525 | 85 | 69 | 0.0 | 7.8 | 0.00 | 0.00 | 0.00 | 65 | 1015.6 |
| 20260905153027 | 85 | 118 | 0.9 | 4.3 | 0.00 | 0.00 | 0.00 | 62 | 1015.6 |
| 20260905151524 | 86 | 40 | 0.0 | 3.5 | 0.00 | 0.00 | 0.00 | 57 | 1015.6 |
| 20260905150024 | 88 | 148 | 1.7 | 4.3 | 0.00 | 0.00 | 0.00 | 48 | 1015.6 |
| 20260905144528 | 89 | 58 | 0.0 | 5.2 | 0.00 | 0.00 | 0.00 | 43 | 1015.5 |
| 20260905143023 | 90 | 76 | 0.0 | 7.8 | 0.00 | 0.00 | 0.00 | 43 | 1015.6 |
| 20260905141523 | 89 | 155 | 0.0 | 7.0 | 0.00 | 0.00 | 0.00 | 51 | 1015.5 |
| 20260905140023 | 90 | 92 | 0.9 | 8.7 | 0.00 | 0.00 | 0.00 | 53 | 1015.7 |
| 20260905134520 | 91 | 67 | 0.0 | 8.7 | 0.00 | 0.00 | 0.00 | 50 | 1015.7 |
| 20260905133025 | 90 | 114 | 0.9 | 7.0 | 0.00 | 0.00 | 0.00 | 44 | 1015.7 |
| 20260905131520 | 91 | 124 | 0.9 | 6.1 | 0.00 | 0.00 | 0.00 | 38 | 1015.8 |
| 20260905130019 | 91 | 137 | 0.9 | 5.2 | 0.00 | 0.00 | 0.00 | 43 | 1016.0 |
| 20260905124518 | 91 | 329 | 1.7 | 6.1 | 0.00 | 0.00 | 0.00 | 42 | 1016.1 |
| 20260905123020 | 92 | 67 | 0.9 | 7.8 | 0.00 | 0.00 | 0.00 | 42 | 1016.2 |
| 20260905121517 | 91 | 96 | 2.6 | 11.3 | 0.00 | 0.00 | 0.00 | 38 | 1016.2 |
| 20260905120033 | 92 | 84 | 0.9 | 9.6 | 0.00 | 0.00 | 0.00 | 33 | 1016.2 |
| 20260905114514 | 92 | 72 | 0.9 | 6.1 | 0.00 | 0.00 | 0.00 | 40 | 1016.3 |
| 20260905113014 | 92 | 72 | 0.0 | 11.3 | 0.00 | 0.00 | 0.00 | 43 | 1016.4 |
| 20260905111510 | 90 | 107 | 0.0 | 3.5 | 0.00 | 0.00 | 0.00 | 47 | 1016.3 |
| 20260905110017 | 90 | 115 | 0.9 | 7.8 | 0.00 | 0.00 | 0.00 | 49 | 1016.2 |
| 20260905104510 | 90 | 164 | 0.9 | 6.1 | 0.00 | 0.00 | 0.00 | 51 | 1016.2 |
| 20260905103016 | 90 | 74 | 0.9 | 7.8 | 0.00 | 0.00 | 0.00 | 51 | 1016.2 |
| 20260905101506 | 89 | 113 | 0.9 | 8.7 | 0.00 | 0.00 | 0.00 | 55 | 1016.3 |
| 20260905100005 | 90 | 109 | 0.0 | 3.5 | 0.00 | 0.00 | 0.00 | 54 | 1016.2 |
| 20260905094501 | 90 | 88 | 0.0 | 3.5 | 0.00 | 0.00 | 0.00 | 53 | 1016.2 |
| 20260905093120 | 90 | 29 | 0.0 | 5.2 | 0.00 | 0.00 | 0.00 | 51 | 1016.3 |
| 20260905091559 | 89 | 77 | 0.0 | 8.7 | 0.00 | 0.00 | 0.00 | 52 | 1016.2 |
| 20260905090053 | 89 | 80 | 0.0 | 3.5 | 0.00 | 0.00 | 0.00 | 54 | 1016.4 |
| 20260905084553 | 88 | 83 | 0.0 | 6.1 | 0.00 | 0.00 | 0.00 | 57 | 1016.4 |
| 20260905083046 | 87 | 82 | 1.7 | 7.0 | 0.00 | 0.00 | 0.00 | 58 | 1016.4 |
| 20260905081545 | 87 | 87 | 0.0 | 2.6 | 0.00 | 0.00 | 0.00 | 59 | 1016.3 |